星链-2738 (STARLINK-2738 )

导读 | 星芒AI

STARLINK-2738 是 SpaceX Starlink 卫星互联网项目中的一颗低轨卫星,属于第27组发射任务中的成员。该卫星旨在为全球用户提供高速、低延迟的互联网服务,尤其关注网络覆盖不足的地区。它运行在约550公里高的近地轨道,采用先进通信技术,支持宽带数据传输。Starlink 项目通过部署大量此类卫星,构建全球性通信网络,推动互联网普及。STARLINK-2738 的成功运行有助于提升 Starlink 系统的稳定性和服务能力。

基本信息
目录编号:
48668
目录名称:
STARLINK-2738
国际标识:
2021-044AG
轨道中心:
EARTH
卫星名称:
星链-2738
卫星全名:
星链-2738 (STARLINK-2738 )
卫星状态:
在轨 (已飞行1667 天)
发射日期:
2021-05-26 UTC
国别 :
美国 (US)
星等 :
--
轨道信息
数据来源 国际轨道数据
星历时间: 2025-12-17T23:09:24+0800
20小时前
查看轨道信息
半长轴: 6925.363km
偏心率: 0.0001375
轨道倾角: 53.056°
近地点辐角 74.512°
升交点赤经 119.993°
平近点角 285.602°
近地点: 546.275km
远地点: 548.181km
周期: 95.592分钟
每日圈数: 15.063956
详细信息
固有亮度:
5
最大亮度:
2.5
卫星平台:
Starlink V1.0
覆盖范围:
全球
运营商:
太空探索技术公司
运营商所在国:
美国
制造商(研发单位):
太空探索技术公司
制造商所在国:
美国
使用方式:
暂无
卫星简介
星链(Starlink)计划是由太空探索技术公司(SpaceX)提出的一个巨型低轨卫星互联网星座项目,计划在2019年至2024年间在太空搭建由约1.2万颗卫星组成的“星链”网络,其中1584颗将部署在地球上空550千米处的近地轨道,并从2020年开始工作。该卫星仍在工作。
2D轨道图
3D轨道图
轨道高度分析图
轨道倾角分析图
轨道综合分析图
查看轨道综合分析图